Year,Month,Day,Hour,Minute,Value (Times are PST for temperature in C)
2020,09,29,00,00,11.10
2020,09,29,00,01,11.10
2020,09,29,00,02,11.10
2020,09,29,00,03,11.10
2020,09,29,00,04,11.10
2020,09,29,00,05,11.10
2020,09,29,00,06,11.10
2020,09,29,00,07,11.10
2020,09,29,00,08,11.10
2020,09,29,00,09,11.10
2020,09,29,00,10,11.10
2020,09,29,00,11,11.10
2020,09,29,00,12,11.00
2020,09,29,00,13,11.00
2020,09,29,00,14,10.90
2020,09,29,00,15,10.90
2020,09,29,00,16,10.90
2020,09,29,00,17,10.90
2020,09,29,00,18,10.90
2020,09,29,00,19,10.90
2020,09,29,00,20,10.90
2020,09,29,00,21,10.90
2020,09,29,00,22,10.90
2020,09,29,00,23,10.90
2020,09,29,00,24,10.90
2020,09,29,00,25,10.90
2020,09,29,00,26,10.90
2020,09,29,00,27,10.90
2020,09,29,00,28,10.90
2020,09,29,00,29,10.90
2020,09,29,00,30,10.90
2020,09,29,00,31,10.90
2020,09,29,00,32,10.90
2020,09,29,00,33,10.90
2020,09,29,00,34,10.90
2020,09,29,00,35,10.80
2020,09,29,00,36,10.80
2020,09,29,00,37,10.80
2020,09,29,00,38,10.80
2020,09,29,00,39,10.80
2020,09,29,00,40,10.80
2020,09,29,00,41,10.80
2020,09,29,00,42,10.80
2020,09,29,00,43,10.70
2020,09,29,00,44,10.70
2020,09,29,00,45,10.70
2020,09,29,00,46,10.70
2020,09,29,00,47,10.70
2020,09,29,00,48,10.70
2020,09,29,00,49,10.70
2020,09,29,00,50,10.70
2020,09,29,00,51,10.70
2020,09,29,00,52,10.70
2020,09,29,00,53,10.60
2020,09,29,00,54,10.60
2020,09,29,00,55,10.60
2020,09,29,00,56,10.60
2020,09,29,00,57,10.60
2020,09,29,00,58,10.60
2020,09,29,00,59,10.60
2020,09,29,01,00,10.60
2020,09,29,01,01,10.60
2020,09,29,01,02,10.60
2020,09,29,01,03,10.60
2020,09,29,01,04,10.60
2020,09,29,01,05,10.60
2020,09,29,01,06,10.60
2020,09,29,01,07,10.60
2020,09,29,01,08,10.60
2020,09,29,01,09,10.60
2020,09,29,01,10,10.60
2020,09,29,01,11,10.60
2020,09,29,01,12,10.60
2020,09,29,01,13,10.60
2020,09,29,01,14,10.60
2020,09,29,01,15,10.50
2020,09,29,01,16,10.40
2020,09,29,01,17,10.40
2020,09,29,01,18,10.40
2020,09,29,01,19,10.40
2020,09,29,01,20,10.40
2020,09,29,01,21,10.40
2020,09,29,01,22,10.40
2020,09,29,01,23,10.40
2020,09,29,01,24,10.40
2020,09,29,01,25,10.40
2020,09,29,01,26,10.40
2020,09,29,01,27,10.40
2020,09,29,01,28,10.40
2020,09,29,01,29,10.40
2020,09,29,01,30,10.40
2020,09,29,01,31,10.40
2020,09,29,01,32,10.40
2020,09,29,01,33,10.40
2020,09,29,01,34,10.40
2020,09,29,01,35,10.40
2020,09,29,01,36,10.40
2020,09,29,01,37,10.40
2020,09,29,01,38,10.40
2020,09,29,01,39,10.40
2020,09,29,01,40,10.40
2020,09,29,01,41,10.30
2020,09,29,01,42,10.30
2020,09,29,01,43,10.30
2020,09,29,01,44,10.40
2020,09,29,01,45,10.40
2020,09,29,01,46,10.40
2020,09,29,01,47,10.40
2020,09,29,01,48,10.40
2020,09,29,01,49,10.40
2020,09,29,01,50,10.40
2020,09,29,01,51,10.40
2020,09,29,01,52,10.40
2020,09,29,01,53,10.40
2020,09,29,01,54,10.40
2020,09,29,01,55,10.40
2020,09,29,01,56,10.40
2020,09,29,01,57,10.40
2020,09,29,01,58,10.40
2020,09,29,01,59,10.40
2020,09,29,02,00,10.40
2020,09,29,02,01,10.40
2020,09,29,02,02,10.30
2020,09,29,02,03,10.30
2020,09,29,02,04,10.30
2020,09,29,02,05,10.30
2020,09,29,02,06,10.30
2020,09,29,02,07,10.30
2020,09,29,02,08,10.30
2020,09,29,02,09,10.30
2020,09,29,02,10,10.30
2020,09,29,02,11,10.30
2020,09,29,02,12,10.30
2020,09,29,02,13,10.30
2020,09,29,02,14,10.30
2020,09,29,02,15,10.30
2020,09,29,02,16,10.30
2020,09,29,02,17,10.30
2020,09,29,02,18,10.30
2020,09,29,02,19,10.30
2020,09,29,02,20,10.30
2020,09,29,02,21,10.30
2020,09,29,02,22,10.30
2020,09,29,02,23,10.30
2020,09,29,02,24,10.30
2020,09,29,02,25,10.30
2020,09,29,02,26,10.40
2020,09,29,02,27,10.40
2020,09,29,02,28,10.40
2020,09,29,02,29,10.40
2020,09,29,02,30,10.50
2020,09,29,02,31,10.60
2020,09,29,02,32,10.60
2020,09,29,02,33,10.60
2020,09,29,02,34,10.60
2020,09,29,02,35,10.60
2020,09,29,02,36,10.60
2020,09,29,02,37,10.60
2020,09,29,02,38,10.40
2020,09,29,02,39,10.40
2020,09,29,02,40,10.40
2020,09,29,02,41,10.40
2020,09,29,02,42,10.40
2020,09,29,02,43,10.40
2020,09,29,02,44,10.40
2020,09,29,02,45,10.30
2020,09,29,02,46,10.30
2020,09,29,02,47,10.30
2020,09,29,02,48,10.20
2020,09,29,02,49,10.20
2020,09,29,02,50,10.20
2020,09,29,02,51,10.20
2020,09,29,02,52,10.20
2020,09,29,02,53,10.20
2020,09,29,02,54,10.20
2020,09,29,02,55,10.20
2020,09,29,02,56,10.20
2020,09,29,02,57,10.30
2020,09,29,02,58,10.30
2020,09,29,02,59,10.30
2020,09,29,03,00,10.30
2020,09,29,03,01,10.30
2020,09,29,03,02,10.30
2020,09,29,03,03,10.30
2020,09,29,03,04,10.30
2020,09,29,03,05,10.30
2020,09,29,03,06,10.30
2020,09,29,03,07,10.30
2020,09,29,03,08,10.30
2020,09,29,03,09,10.30
2020,09,29,03,10,10.30
2020,09,29,03,11,10.30
2020,09,29,03,12,10.30
2020,09,29,03,13,10.30
2020,09,29,03,14,10.20
2020,09,29,03,15,10.20
2020,09,29,03,16,10.20
2020,09,29,03,17,10.20
2020,09,29,03,18,10.20
2020,09,29,03,19,10.20
2020,09,29,03,20,10.20
2020,09,29,03,21,10.20
2020,09,29,03,22,10.10
2020,09,29,03,23,10.10
2020,09,29,03,24,10.10
2020,09,29,03,25,10.10
2020,09,29,03,26,10.10
2020,09,29,03,27,10.10
2020,09,29,03,28,10.10
2020,09,29,03,29,10.10
2020,09,29,03,30,10.10
2020,09,29,03,31,10.10
2020,09,29,03,32,10.20
2020,09,29,03,33,10.20
2020,09,29,03,34,10.20
2020,09,29,03,35,10.20
2020,09,29,03,36,10.20
2020,09,29,03,37,10.20
2020,09,29,03,38,10.20
2020,09,29,03,39,10.20
2020,09,29,03,40,10.20
2020,09,29,03,41,10.20
2020,09,29,03,42,10.20
2020,09,29,03,43,10.20
2020,09,29,03,44,10.20
2020,09,29,03,45,10.10
2020,09,29,03,46,10.10
2020,09,29,03,47,10.10
2020,09,29,03,48,10.10
2020,09,29,03,49,10.10
2020,09,29,03,50,10.10
2020,09,29,03,51,10.10
2020,09,29,03,52,10.10
2020,09,29,03,53,10.10
2020,09,29,03,54,10.10
2020,09,29,03,55,10.10
2020,09,29,03,56,10.10
2020,09,29,03,57,10.10
2020,09,29,03,58,10.10
2020,09,29,03,59,10.10
2020,09,29,04,00,10.10
2020,09,29,04,01,10.10
2020,09,29,04,02,10.10
2020,09,29,04,03,10.20
2020,09,29,04,04,10.20
2020,09,29,04,05,10.20
2020,09,29,04,06,10.20
2020,09,29,04,07,10.20
2020,09,29,04,08,10.20
2020,09,29,04,09,10.20
2020,09,29,04,10,10.10
2020,09,29,04,11,10.10
2020,09,29,04,12,10.10
2020,09,29,04,13,10.10
2020,09,29,04,14,10.10
2020,09,29,04,15,10.10
2020,09,29,04,16,10.10
2020,09,29,04,17,10.10
2020,09,29,04,18,10.10
2020,09,29,04,19,10.20
2020,09,29,04,20,10.20
2020,09,29,04,21,10.20
2020,09,29,04,22,10.20
2020,09,29,04,23,10.20
2020,09,29,04,24,10.20
2020,09,29,04,25,10.30
2020,09,29,04,26,10.30
2020,09,29,04,27,10.30
2020,09,29,04,28,10.40
2020,09,29,04,29,10.40
2020,09,29,04,30,10.40
2020,09,29,04,31,10.40
2020,09,29,04,32,10.40
2020,09,29,04,33,10.40
2020,09,29,04,34,10.40
2020,09,29,04,35,10.40
2020,09,29,04,36,10.40
2020,09,29,04,37,10.40
2020,09,29,04,38,10.40
2020,09,29,04,39,10.40
2020,09,29,04,40,10.40
2020,09,29,04,41,10.40
2020,09,29,04,42,10.40
2020,09,29,04,43,10.40
2020,09,29,04,44,10.40
2020,09,29,04,45,10.30
2020,09,29,04,46,10.30
2020,09,29,04,47,10.30
2020,09,29,04,48,10.30
2020,09,29,04,49,10.30
2020,09,29,04,50,10.30
2020,09,29,04,51,10.30
2020,09,29,04,52,10.30
2020,09,29,04,53,10.30
2020,09,29,04,54,10.30
2020,09,29,04,55,10.30
2020,09,29,04,56,10.30
2020,09,29,04,57,10.30
2020,09,29,04,58,10.30
2020,09,29,04,59,10.20
2020,09,29,05,00,10.20
2020,09,29,05,01,10.20
2020,09,29,05,02,10.20
2020,09,29,05,03,10.10
2020,09,29,05,04,10.10
2020,09,29,05,05,10.10
2020,09,29,05,06,10.10
2020,09,29,05,07,10.10
2020,09,29,05,08,10.10
2020,09,29,05,09,10.10
2020,09,29,05,10,10.10
2020,09,29,05,11,10.20
2020,09,29,05,12,10.20
2020,09,29,05,13,10.20
2020,09,29,05,14,10.20
2020,09,29,05,15,10.20
2020,09,29,05,16,10.20
2020,09,29,05,17,10.20
2020,09,29,05,18,10.20
2020,09,29,05,19,10.20
2020,09,29,05,20,10.10
2020,09,29,05,21,10.10
2020,09,29,05,22,10.10
2020,09,29,05,23,10.10
2020,09,29,05,24,10.10
2020,09,29,05,25,10.10
2020,09,29,05,26,10.10
2020,09,29,05,27,10.10
2020,09,29,05,28,10.10
2020,09,29,05,29,10.10
2020,09,29,05,30,10.10
2020,09,29,05,31,10.10
2020,09,29,05,32,10.10
2020,09,29,05,33,10.10
2020,09,29,05,34,10.10
2020,09,29,05,35,10.10
2020,09,29,05,36,10.10
2020,09,29,05,37,10.10
2020,09,29,05,38,10.10
2020,09,29,05,39,10.10
2020,09,29,05,40,9.90
2020,09,29,05,41,9.90
2020,09,29,05,42,9.90
2020,09,29,05,43,9.90
2020,09,29,05,44,9.90
2020,09,29,05,45,9.90
2020,09,29,05,46,9.90
2020,09,29,05,47,9.90
2020,09,29,05,48,9.90
2020,09,29,05,49,9.90
2020,09,29,05,50,9.90
2020,09,29,05,51,9.90
2020,09,29,05,52,9.90
2020,09,29,05,53,9.90
2020,09,29,05,54,9.90
2020,09,29,05,55,9.90
2020,09,29,05,56,9.90
2020,09,29,05,57,9.90
2020,09,29,05,58,9.90
2020,09,29,05,59,9.90
2020,09,29,06,00,9.90
2020,09,29,06,01,9.90
2020,09,29,06,02,9.90
2020,09,29,06,03,9.90
2020,09,29,06,04,9.90
2020,09,29,06,05,9.80
2020,09,29,06,06,9.80
2020,09,29,06,07,9.80
2020,09,29,06,08,9.80
2020,09,29,06,09,9.80
2020,09,29,06,10,9.80
2020,09,29,06,11,9.80
2020,09,29,06,12,9.80
2020,09,29,06,13,9.80
2020,09,29,06,14,9.80
2020,09,29,06,15,9.80
2020,09,29,06,16,9.80
2020,09,29,06,17,9.80
2020,09,29,06,18,9.80
2020,09,29,06,19,9.80
2020,09,29,06,20,9.80
2020,09,29,06,21,9.80
2020,09,29,06,22,9.80
2020,09,29,06,23,9.70
2020,09,29,06,24,9.70
2020,09,29,06,25,9.70
2020,09,29,06,26,9.70
2020,09,29,06,27,9.70
2020,09,29,06,28,9.70
2020,09,29,06,29,9.70
2020,09,29,06,30,9.70
2020,09,29,06,31,9.70
2020,09,29,06,32,9.70
2020,09,29,06,33,9.70
2020,09,29,06,34,9.70
2020,09,29,06,35,9.70
2020,09,29,06,36,9.70
2020,09,29,06,37,9.70
2020,09,29,06,38,9.70
2020,09,29,06,39,9.70
2020,09,29,06,40,9.70
2020,09,29,06,41,9.70
2020,09,29,06,42,9.70
2020,09,29,06,43,9.70
2020,09,29,06,44,9.70
2020,09,29,06,45,9.70
2020,09,29,06,46,9.70
2020,09,29,06,47,9.70
2020,09,29,06,48,9.70
2020,09,29,06,49,9.70
2020,09,29,06,50,9.70
2020,09,29,06,51,9.70
2020,09,29,06,52,9.70
2020,09,29,06,53,9.70
2020,09,29,06,54,9.70
2020,09,29,06,55,9.70
2020,09,29,06,56,9.70
2020,09,29,06,57,9.70
2020,09,29,06,58,9.70
2020,09,29,06,59,9.70
2020,09,29,07,00,9.70
2020,09,29,07,01,9.70
2020,09,29,07,02,9.70
2020,09,29,07,03,9.70
2020,09,29,07,04,9.70
2020,09,29,07,05,9.70
2020,09,29,07,06,9.70
2020,09,29,07,07,9.70
2020,09,29,07,08,9.70
2020,09,29,07,09,9.70
2020,09,29,07,10,9.70
2020,09,29,07,11,9.70
2020,09,29,07,12,9.70
2020,09,29,07,13,9.70
2020,09,29,07,14,9.70
2020,09,29,07,15,9.70
2020,09,29,07,16,9.70
2020,09,29,07,17,9.70
2020,09,29,07,18,9.70
2020,09,29,07,19,9.70
2020,09,29,07,20,9.70
2020,09,29,07,21,9.70
2020,09,29,07,22,9.70
2020,09,29,07,23,9.70
2020,09,29,07,24,9.70
2020,09,29,07,25,9.70
2020,09,29,07,26,9.70
2020,09,29,07,27,9.70
2020,09,29,07,28,9.70
2020,09,29,07,29,9.70
2020,09,29,07,30,9.70
2020,09,29,07,31,9.70
2020,09,29,07,32,9.80
2020,09,29,07,33,9.80
2020,09,29,07,34,9.80
2020,09,29,07,35,9.80
2020,09,29,07,36,9.90
2020,09,29,07,37,9.90
2020,09,29,07,38,9.90
2020,09,29,07,39,9.90
2020,09,29,07,40,10.10
2020,09,29,07,41,10.10
2020,09,29,07,42,10.10
2020,09,29,07,43,10.20
2020,09,29,07,44,10.20
2020,09,29,07,45,10.30
2020,09,29,07,46,10.30
2020,09,29,07,47,10.40
2020,09,29,07,48,10.40
2020,09,29,07,49,10.40
2020,09,29,07,50,10.50
2020,09,29,07,51,10.60
2020,09,29,07,52,10.60
2020,09,29,07,53,10.70
2020,09,29,07,54,10.70
2020,09,29,07,55,10.80
2020,09,29,07,56,10.90
2020,09,29,07,57,10.90
2020,09,29,07,58,11.00
2020,09,29,07,59,11.10
2020,09,29,08,00,11.10
2020,09,29,08,01,11.10
2020,09,29,08,02,11.20
2020,09,29,08,03,11.20
2020,09,29,08,04,11.20
2020,09,29,08,05,11.30
2020,09,29,08,06,11.30
2020,09,29,08,07,11.30
2020,09,29,08,08,11.40
2020,09,29,08,09,11.40
2020,09,29,08,10,11.60
2020,09,29,08,11,11.60
2020,09,29,08,12,11.70
2020,09,29,08,13,11.80
2020,09,29,08,14,11.80
2020,09,29,08,15,11.90
2020,09,29,08,16,11.90
2020,09,29,08,17,12.00
2020,09,29,08,18,12.00
2020,09,29,08,19,12.10
2020,09,29,08,20,12.20
2020,09,29,08,21,12.20
2020,09,29,08,22,12.30
2020,09,29,08,23,12.30
2020,09,29,08,24,12.40
2020,09,29,08,25,12.50
2020,09,29,08,26,12.60
2020,09,29,08,27,12.80
2020,09,29,08,28,12.90
2020,09,29,08,29,13.00
2020,09,29,08,30,13.10
2020,09,29,08,31,13.30
2020,09,29,08,32,13.40
2020,09,29,08,33,13.60
2020,09,29,08,34,13.60
2020,09,29,08,35,13.70
2020,09,29,08,36,13.80
2020,09,29,08,37,13.80
2020,09,29,08,38,13.90
2020,09,29,08,39,14.00
2020,09,29,08,40,14.10
2020,09,29,08,41,14.20
2020,09,29,08,42,14.40
2020,09,29,08,43,14.50
2020,09,29,08,44,14.70
2020,09,29,08,45,14.80
2020,09,29,08,46,14.90
2020,09,29,08,47,15.00
2020,09,29,08,48,15.10
2020,09,29,08,49,15.20
2020,09,29,08,50,15.30
2020,09,29,08,51,15.50
2020,09,29,08,52,15.60
2020,09,29,08,53,15.70
2020,09,29,08,54,15.80
2020,09,29,08,55,15.90
2020,09,29,08,56,16.00
2020,09,29,08,57,16.10
2020,09,29,08,58,16.20
2020,09,29,08,59,16.30
2020,09,29,09,00,16.40
2020,09,29,09,01,16.40
2020,09,29,09,02,16.60
2020,09,29,09,03,16.70
2020,09,29,09,04,16.70
2020,09,29,09,05,16.80
2020,09,29,09,06,16.90
2020,09,29,09,07,17.00
2020,09,29,09,08,17.10
2020,09,29,09,09,17.10
2020,09,29,09,10,17.20
2020,09,29,09,11,17.20
2020,09,29,09,12,17.20
2020,09,29,09,13,17.30
2020,09,29,09,14,17.40
2020,09,29,09,15,17.40
2020,09,29,09,16,17.40
2020,09,29,09,17,17.50
2020,09,29,09,18,17.60
2020,09,29,09,19,17.70
2020,09,29,09,20,17.70
2020,09,29,09,21,17.80
2020,09,29,09,22,17.80
2020,09,29,09,23,17.90
2020,09,29,09,24,18.00
2020,09,29,09,25,18.10
2020,09,29,09,26,18.10
2020,09,29,09,27,18.10
2020,09,29,09,28,18.20
2020,09,29,09,29,18.20
2020,09,29,09,30,18.20
2020,09,29,09,31,18.20
2020,09,29,09,32,18.20
2020,09,29,09,33,18.30
2020,09,29,09,34,18.40
2020,09,29,09,35,18.40
2020,09,29,09,36,18.50
2020,09,29,09,37,18.50
2020,09,29,09,38,18.60
2020,09,29,09,39,18.60
2020,09,29,09,40,18.70
2020,09,29,09,41,18.70
2020,09,29,09,42,18.70
2020,09,29,09,43,18.70
2020,09,29,09,44,18.80
2020,09,29,09,45,18.80
2020,09,29,09,46,18.80
2020,09,29,09,47,18.80
2020,09,29,09,48,18.90
2020,09,29,09,49,18.90
2020,09,29,09,50,18.90
2020,09,29,09,51,18.90
2020,09,29,09,52,19.00
2020,09,29,09,53,19.10
2020,09,29,09,54,19.10
2020,09,29,09,55,19.10
2020,09,29,09,56,19.10
2020,09,29,09,57,19.10
2020,09,29,09,58,19.10
2020,09,29,09,59,19.20
2020,09,29,10,00,19.20
2020,09,29,10,01,19.20
2020,09,29,10,02,19.20
2020,09,29,10,03,19.30
2020,09,29,10,04,19.30
2020,09,29,10,05,19.30
2020,09,29,10,06,19.30
2020,09,29,10,07,19.30
2020,09,29,10,08,19.30
2020,09,29,10,09,19.30
2020,09,29,10,10,19.30
2020,09,29,10,11,19.40
2020,09,29,10,12,19.40
2020,09,29,10,13,19.40
2020,09,29,10,14,19.50
2020,09,29,10,15,19.50
2020,09,29,10,16,19.60
2020,09,29,10,17,19.60
2020,09,29,10,18,19.60
2020,09,29,10,19,19.70
2020,09,29,10,20,19.70
2020,09,29,10,21,19.70
2020,09,29,10,22,19.80
2020,09,29,10,23,19.90
2020,09,29,10,24,19.90
2020,09,29,10,25,19.90
2020,09,29,10,26,19.90
2020,09,29,10,27,19.90
2020,09,29,10,28,19.90
2020,09,29,10,29,19.90
2020,09,29,10,30,19.90
2020,09,29,10,31,19.90
2020,09,29,10,32,19.90
2020,09,29,10,33,19.90
2020,09,29,10,34,19.90
2020,09,29,10,35,19.90
2020,09,29,10,36,19.90
2020,09,29,10,37,19.90
2020,09,29,10,38,19.90
2020,09,29,10,39,19.90
2020,09,29,10,40,19.90
2020,09,29,10,41,20.10
2020,09,29,10,42,20.10
2020,09,29,10,43,20.10
2020,09,29,10,44,20.20
2020,09,29,10,45,20.20
2020,09,29,10,46,20.20
2020,09,29,10,47,20.20
2020,09,29,10,48,20.30
2020,09,29,10,49,20.30
2020,09,29,10,50,20.30
2020,09,29,10,51,20.30
2020,09,29,10,52,20.30
2020,09,29,10,53,20.40
2020,09,29,10,54,20.40
2020,09,29,10,55,20.50
2020,09,29,10,56,20.50
2020,09,29,10,57,20.50
2020,09,29,10,58,20.60
2020,09,29,10,59,20.70
2020,09,29,11,00,20.70
2020,09,29,11,01,20.70
2020,09,29,11,02,20.70
2020,09,29,11,03,20.70
2020,09,29,11,04,20.80
2020,09,29,11,05,20.80
2020,09,29,11,06,20.80
2020,09,29,11,07,20.80
2020,09,29,11,08,20.80
2020,09,29,11,09,20.80
2020,09,29,11,10,20.80
2020,09,29,11,11,20.80
2020,09,29,11,12,20.80
2020,09,29,11,13,20.80
2020,09,29,11,14,20.80
2020,09,29,11,15,20.90
2020,09,29,11,16,20.90
2020,09,29,11,17,20.90
2020,09,29,11,18,20.90
2020,09,29,11,19,21.00
2020,09,29,11,20,21.00
2020,09,29,11,21,21.00
2020,09,29,11,22,21.10
2020,09,29,11,23,21.10
2020,09,29,11,24,21.20
2020,09,29,11,25,21.20
2020,09,29,11,26,21.30
2020,09,29,11,27,21.30
2020,09,29,11,28,21.30
2020,09,29,11,29,21.40
2020,09,29,11,30,21.40
2020,09,29,11,31,21.40
2020,09,29,11,32,21.50
2020,09,29,11,33,21.60
2020,09,29,11,34,21.60
2020,09,29,11,35,21.60
2020,09,29,11,36,21.70
2020,09,29,11,37,21.70
2020,09,29,11,38,21.80
2020,09,29,11,39,21.90
2020,09,29,11,40,21.90
2020,09,29,11,41,22.00
2020,09,29,11,42,22.00
2020,09,29,11,43,22.00
2020,09,29,11,44,22.00
2020,09,29,11,45,22.00
2020,09,29,11,46,22.10
2020,09,29,11,47,22.10
2020,09,29,11,48,22.10
2020,09,29,11,49,22.10
2020,09,29,11,50,22.10
2020,09,29,11,51,22.10
2020,09,29,11,52,22.10
2020,09,29,11,53,22.10
2020,09,29,11,54,22.00
2020,09,29,11,55,22.00
2020,09,29,11,56,21.90
2020,09,29,11,57,21.90
2020,09,29,11,58,22.00
2020,09,29,11,59,22.00
2020,09,29,12,00,22.00
2020,09,29,12,01,22.00
2020,09,29,12,02,22.00
2020,09,29,12,03,22.00
2020,09,29,12,04,22.00
2020,09,29,12,05,22.00
2020,09,29,12,06,22.00
2020,09,29,12,07,22.10
2020,09,29,12,08,22.10
2020,09,29,12,09,22.10
2020,09,29,12,10,22.10
2020,09,29,12,11,22.20
2020,09,29,12,12,22.20
2020,09,29,12,13,22.20
2020,09,29,12,14,22.20
2020,09,29,12,15,22.20
2020,09,29,12,16,22.30
2020,09,29,12,17,22.30
2020,09,29,12,18,22.30
2020,09,29,12,19,22.30
2020,09,29,12,20,22.40
2020,09,29,12,21,22.50
2020,09,29,12,22,22.50
2020,09,29,12,23,22.50
2020,09,29,12,24,22.50
2020,09,29,12,25,22.50
2020,09,29,12,26,22.60
2020,09,29,12,27,22.60
2020,09,29,12,28,22.60
2020,09,29,12,29,22.50
2020,09,29,12,30,22.50
2020,09,29,12,31,22.50
2020,09,29,12,32,22.50
2020,09,29,12,33,22.50
2020,09,29,12,34,22.50
2020,09,29,12,35,22.50
2020,09,29,12,36,22.50
2020,09,29,12,37,22.50
2020,09,29,12,38,22.50
2020,09,29,12,39,22.50
2020,09,29,12,40,22.60
2020,09,29,12,41,22.60
2020,09,29,12,42,22.60
2020,09,29,12,43,22.70
2020,09,29,12,44,22.70
2020,09,29,12,45,22.70
2020,09,29,12,46,22.80
2020,09,29,12,47,22.90
2020,09,29,12,48,22.90
2020,09,29,12,49,23.00
2020,09,29,12,50,23.10
2020,09,29,12,51,23.10
2020,09,29,12,52,23.10
2020,09,29,12,53,23.20
2020,09,29,12,54,23.10
2020,09,29,12,55,23.10
2020,09,29,12,56,23.10
2020,09,29,12,57,23.10
2020,09,29,12,58,23.10
2020,09,29,12,59,23.10
2020,09,29,13,00,23.10
2020,09,29,13,01,23.00
2020,09,29,13,02,22.90
2020,09,29,13,03,22.90
2020,09,29,13,04,22.90
2020,09,29,13,05,22.90
2020,09,29,13,06,23.00
2020,09,29,13,07,23.10
2020,09,29,13,08,23.10
2020,09,29,13,09,23.10
2020,09,29,13,10,23.20
2020,09,29,13,11,23.30
2020,09,29,13,12,23.30
2020,09,29,13,13,23.40
2020,09,29,13,14,23.50
2020,09,29,13,15,23.60
2020,09,29,13,16,23.60
2020,09,29,13,17,23.60
2020,09,29,13,18,23.70
2020,09,29,13,19,23.70
2020,09,29,13,20,23.70
2020,09,29,13,21,23.70
2020,09,29,13,22,23.70
2020,09,29,13,23,23.80
2020,09,29,13,24,23.70
2020,09,29,13,25,23.70
2020,09,29,13,26,23.80
2020,09,29,13,27,23.80
2020,09,29,13,28,23.80
2020,09,29,13,29,23.80
2020,09,29,13,30,23.80
2020,09,29,13,31,23.70
2020,09,29,13,32,23.70
2020,09,29,13,33,23.70
2020,09,29,13,34,23.70
2020,09,29,13,35,23.70
2020,09,29,13,36,23.70
2020,09,29,13,37,23.80
2020,09,29,13,38,23.80
2020,09,29,13,39,23.80
2020,09,29,13,40,23.80
2020,09,29,13,41,23.80
2020,09,29,13,42,23.80
2020,09,29,13,43,23.80
2020,09,29,13,44,23.80
2020,09,29,13,45,23.90
2020,09,29,13,46,23.90
2020,09,29,13,47,23.90
2020,09,29,13,48,23.90
2020,09,29,13,49,23.90
2020,09,29,13,50,23.90
2020,09,29,13,51,23.90
2020,09,29,13,52,23.80
2020,09,29,13,53,23.80
2020,09,29,13,54,23.80
2020,09,29,13,55,23.80
2020,09,29,13,56,23.80
2020,09,29,13,57,23.80
2020,09,29,13,58,23.80
2020,09,29,13,59,23.80
2020,09,29,14,00,23.80
2020,09,29,14,01,23.80
2020,09,29,14,02,23.80
2020,09,29,14,03,23.80
2020,09,29,14,04,23.80
2020,09,29,14,05,23.80
2020,09,29,14,06,23.80
2020,09,29,14,07,23.80
2020,09,29,14,08,23.80
2020,09,29,14,09,23.70
2020,09,29,14,10,23.70
2020,09,29,14,11,23.70
2020,09,29,14,12,23.70
2020,09,29,14,13,23.70
2020,09,29,14,14,23.70
2020,09,29,14,15,23.70
2020,09,29,14,16,23.70
2020,09,29,14,17,23.70
2020,09,29,14,18,23.70
2020,09,29,14,19,23.70
2020,09,29,14,20,23.70
2020,09,29,14,21,23.80
2020,09,29,14,22,23.80
2020,09,29,14,23,23.80
2020,09,29,14,24,23.80
2020,09,29,14,25,23.80
2020,09,29,14,26,23.80
2020,09,29,14,27,23.90
2020,09,29,14,28,23.90
2020,09,29,14,29,23.90
2020,09,29,14,30,23.90
2020,09,29,14,31,23.90
2020,09,29,14,32,23.90
2020,09,29,14,33,23.90
2020,09,29,14,34,23.90
2020,09,29,14,35,23.90
2020,09,29,14,36,23.90
2020,09,29,14,37,23.90
2020,09,29,14,38,23.90
2020,09,29,14,39,24.10
2020,09,29,14,40,24.10
2020,09,29,14,41,24.10
2020,09,29,14,42,24.10
2020,09,29,14,43,24.10
2020,09,29,14,44,24.10
2020,09,29,14,45,24.00
2020,09,29,14,46,23.90
2020,09,29,14,47,23.90
2020,09,29,14,48,23.90
2020,09,29,14,49,23.80
2020,09,29,14,50,23.80
2020,09,29,14,51,23.80
2020,09,29,14,52,23.80
2020,09,29,14,53,23.80
2020,09,29,14,54,23.80
2020,09,29,14,55,23.80
2020,09,29,14,56,23.80
2020,09,29,14,57,23.80
2020,09,29,14,58,23.80
2020,09,29,14,59,23.80
2020,09,29,15,00,23.70
2020,09,29,15,01,23.70
2020,09,29,15,02,23.70
2020,09,29,15,03,23.70
2020,09,29,15,04,23.60
2020,09,29,15,05,23.60
2020,09,29,15,06,23.60
2020,09,29,15,07,23.60
2020,09,29,15,08,23.60
2020,09,29,15,09,23.60
2020,09,29,15,10,23.60
2020,09,29,15,11,23.60
2020,09,29,15,12,23.60
2020,09,29,15,13,23.60
2020,09,29,15,14,23.50
2020,09,29,15,15,23.40
2020,09,29,15,16,23.40
2020,09,29,15,17,23.40
2020,09,29,15,18,23.40
2020,09,29,15,19,23.50
2020,09,29,15,20,23.60
2020,09,29,15,21,23.60
2020,09,29,15,22,23.60
2020,09,29,15,23,23.60
2020,09,29,15,24,23.60
2020,09,29,15,25,23.60
2020,09,29,15,26,23.60
2020,09,29,15,27,23.60
2020,09,29,15,28,23.60
2020,09,29,15,29,23.60
2020,09,29,15,30,23.60
2020,09,29,15,31,23.60
2020,09,29,15,32,23.60
2020,09,29,15,33,23.60
2020,09,29,15,34,23.60
2020,09,29,15,35,23.60
2020,09,29,15,36,23.60
2020,09,29,15,37,23.60
2020,09,29,15,38,23.60
2020,09,29,15,39,23.60
2020,09,29,15,40,23.60
2020,09,29,15,41,23.60
2020,09,29,15,42,23.60
2020,09,29,15,43,23.60
2020,09,29,15,44,23.60
2020,09,29,15,45,23.60
2020,09,29,15,46,23.60
2020,09,29,15,47,23.60
2020,09,29,15,48,23.60
2020,09,29,15,49,23.60
2020,09,29,15,50,23.60
2020,09,29,15,51,23.60
2020,09,29,15,52,23.50
2020,09,29,15,53,23.40
2020,09,29,15,54,23.40
2020,09,29,15,55,23.40
2020,09,29,15,56,23.50
2020,09,29,15,57,23.60
2020,09,29,15,58,23.50
2020,09,29,15,59,23.40
2020,09,29,16,00,23.40
2020,09,29,16,01,23.40
2020,09,29,16,02,23.40
2020,09,29,16,03,23.40
2020,09,29,16,04,23.40
2020,09,29,16,05,23.40
2020,09,29,16,06,23.40
2020,09,29,16,07,23.40
2020,09,29,16,08,23.40
2020,09,29,16,09,23.40
2020,09,29,16,10,23.40
2020,09,29,16,11,23.40
2020,09,29,16,12,23.40
2020,09,29,16,13,23.40
2020,09,29,16,14,23.40
2020,09,29,16,15,23.40
2020,09,29,16,16,23.40
2020,09,29,16,17,23.40
2020,09,29,16,18,23.40
2020,09,29,16,19,23.40
2020,09,29,16,20,23.40
2020,09,29,16,21,23.40
2020,09,29,16,22,23.40
2020,09,29,16,23,23.40
2020,09,29,16,24,23.30
2020,09,29,16,25,23.30
2020,09,29,16,26,23.30
2020,09,29,16,27,23.30
2020,09,29,16,28,23.30
2020,09,29,16,29,23.30
2020,09,29,16,30,23.30
2020,09,29,16,31,23.30
2020,09,29,16,32,23.20
2020,09,29,16,33,23.20
2020,09,29,16,34,23.20
2020,09,29,16,35,23.20
2020,09,29,16,36,23.20
2020,09,29,16,37,23.10
2020,09,29,16,38,23.10
2020,09,29,16,39,23.10
2020,09,29,16,40,23.10
2020,09,29,16,41,23.00
2020,09,29,16,42,22.90
2020,09,29,16,43,22.90
2020,09,29,16,44,22.90
2020,09,29,16,45,22.90
2020,09,29,16,46,22.90
2020,09,29,16,47,22.90
2020,09,29,16,48,22.90
2020,09,29,16,49,22.90
2020,09,29,16,50,22.90
2020,09,29,16,51,22.90
2020,09,29,16,52,22.90
2020,09,29,16,53,22.90
2020,09,29,16,54,22.90
2020,09,29,16,55,22.90
2020,09,29,16,56,22.90
2020,09,29,16,57,22.90
2020,09,29,16,58,22.90
2020,09,29,16,59,22.90
2020,09,29,17,00,22.90
2020,09,29,17,01,22.90
2020,09,29,17,02,22.90
2020,09,29,17,03,22.90
2020,09,29,17,04,22.90
2020,09,29,17,05,22.90
2020,09,29,17,06,22.80
2020,09,29,17,07,22.80
2020,09,29,17,08,22.70
2020,09,29,17,09,22.70
2020,09,29,17,10,22.60
2020,09,29,17,11,22.60
2020,09,29,17,12,22.50
2020,09,29,17,13,22.40
2020,09,29,17,14,22.40
2020,09,29,17,15,22.30
2020,09,29,17,16,22.30
2020,09,29,17,17,22.20
2020,09,29,17,18,22.20
2020,09,29,17,19,22.10
2020,09,29,17,20,22.10
2020,09,29,17,21,22.10
2020,09,29,17,22,22.00
2020,09,29,17,23,22.00
2020,09,29,17,24,22.00